Погода в Максатихе

Погода в Максатихе : погода сейчас, прогноз погоды и архив. Всё, что Вы хотите узнать о погоде в Максатихе!

Поиск расширенной информации на нашем сайте:

Другие новости

Новости СМИ2

Главная страница сайта

Новости сайта

03.07.2017

Напоминаем, что на нашем специализированном сайте Метеоцентр.Азия вы можете получить высокодетализированные автоматические прогнозы погоды по пунктам России, СНГ и мира в авиационном формате (включающие направление и скорость ветра, видимость, явления погоды, количество и форму облачности, нижнюю и верхнюю границу облачности).

Рекомендуем: Стирка пуховика и подушек в стиральной машине moyatehnika.ru.

Погода в Максатихе - сегодня

Время (UTC), дата Ветер
(°,м/с) 
Видим.   Явления Облачность Т
(°С)
Тd
(°С)
f(%) Тe
(°С)
Pmin
(гПа)
dP
(гПа)
Po
(мм)
O2
(г/м3)
Тmin Tmax R s Состояние
почвы
00 16.06.18 тихо ()   4000 м  дымка  ясно 
+4.6 +4 96 +5  1021.8  753  298           
03 16.06.18 тихо ()   4000 м  дымка  3/0 верхняя 
[Ci fib]
+9.6 +8.1 90 +10  1022  0.6  753  292  +3.5         
09 16.06.18 150 (ЮВ) 10 км    3/1 1000 м верхняя 
[Cu hum|Ci fib]
+22.1 +3.9 30 +22  1021.3  -0.2  753  280           
12 16.06.18 140 (ЮВ) 10 км    6/1 1000 м верхняя 
[Cu hum|Ci fib]
+23.3 +4.6 30 +23  1020.3  -0.9  753  279           
15 16.06.18 020 (С) 31  0200 м    3/3 <0100 м верхняя 
[Sc|Cc]
+4.6   1019.6  -0.7  752             
21 16.06.18 тихо ()   10 км    9/0 верхняя 
[Ci]
+10.4 +8.2 86 +10  1020.9  0.4  753  291           
03 17.06.18 тихо ()   10 км  слаб. ливневой дождь  9/8 600 м кучево-дожд., верхняя 
[Cb cap|Ci fib]
+14 +10.1 77 +15  1021.4  0.4  753  287  +7.1    0.0     
06 17.06.18 160 (Ю) 10 км  {ливн. осадки}  8/3 1000 м средняя, верхняя 
[Sc diur, vesp|Ac trans|Cc]
+20 +9.9 52 +21  1020.7  -0.4  753  281  +7.1    0.0    сухая 
09 17.06.18 220 (ЮЗ) 10 км    9/4 600 м средняя, верхняя 
[Cu med, cong|Ac trans|Cc]
+24.3 +6.5 32 +24  1019.9  -0.5  753  277           
12 17.06.18 140 (ЮВ) 10 км    6/4 600 м верхняя 
[Cu hum|Ci fib]
+25 +6.8 31 +25  1018.9  -1  752  276           
15 17.06.18 100 (В) 10 км    4/3 600 м верхняя 
[Cu Sc|Ci fib]
+22.4 +8.6 41 +22  1018.2  -0.8  751  278      0.0     
21 17.06.18 тихо ()   10 км    ясно 
+12 +10.2 89 +13  1018.5  0.1  751  288           
09 18.06.18 180 (Ю) 10 км    3/3 1000 м 
[Cu hum]
+25.8 +7.4 31 +26  1015.8  -0.8  750  275           
12 18.06.18 210 (ЮЗ) 10 км    4/4 1000 м 
[Cu hum]
+27 +7 28 +27  1014.7  -1  749  273           
15 18.06.18 180 (Ю) 10 км    9/0 средняя 
[Ac cuf]
+25.3 +8.9 35 +25  1013.6  -1.2  748  274           
21 18.06.18 тихо ()   10 км    3/0 средняя 
[Ac trans]
+15.7 +11.6 77 +19  1013.3  747  283           
00 19.06.18 200 (Ю) 10 км    1/0 средняя 
[Ac trans]
+13.7 +11.8 88 +19  1013  -0.4  747  284           
09 19.06.18 240 (ЮЗ) 10 км    9/5 600 м средняя 
[Sc|Ac trans]
+25.8 +13.1 45 +32  1009.7  -1.6  745  272           
06 20.06.18 270 (З) 5{10}  10 км    3/3 100 м 
[St]
+16.3 +8.5 60 +16  1006.8  -0.1  743  281  +11.2    0.5    влажная 
18 20.06.18 250 (З) 2{15}  10 км  {ливн. осадки}  1/0 средняя 
[Ac lent]
+14.2 +7.8 65 +15  1008.4  -0.2  744  283    +20.9     
21 20.06.18 270 (З) 10 км  слаб. ливневой дождь  8/8 600 м кучево-дожд. 
[Cb cap]
+12.9 +6.4 65 +13  1009.2  0.6  744  285           
09 21.06.18 250 (З) 3{10}  10 км    8/3 600 м средняя, верхняя 
[Cu hum|Ac trans|Cc]
+18.2 +6.5 46 +19  1009.4  0.1  745  280           
21 21.06.18 150 (ЮВ) 4000 м  дымка  3/0 верхняя 
[Ci fib]
+13.2 +11.9 92 +18  1010  -0.3  745  284           
06 22.06.18 180 (Ю) 5-10{10}  10 км    4/0 верхняя 
[Ci sp]
+23 +12.8 53 +28  1005.7  -1.5  742  273  +13        сухая 
09 22.06.18 100 (В) 5{12}  10 км    3/0 верхняя 
[Ci sp]
+27.5 +12.4 39 +32  1004.3  -1.5  741  269           
Время (UTC), дата Ветер
(°,м/с) 
Видим.   Явления Облачность Т
(°С)
Тd
(°С)
f(%) Тe
(°С)
Pmin
(гПа)
dP
(гПа)
Po
(мм)
O2
(г/м3)
Тmin Tmax R s Состояние
почвы

Для получения пояснительной информации подведите курсор к названию столбца.

ПОГОДА в Максатихе - архив

Всё, что Вы хотите узнать о погоде в Максатихе - удобно и подробно!

Выберите нужную дату (начиная с 1 января 2015* года) и нажмите кнопку "Найти".
Будут отображены архивные сводки погоды по пункту Максатиха, начиная с указанной даты.


Отображать данные в формате CSV (для использования в таблицах Excel)


Внимание! Наш архив погоды предназначен исключительно для личного некоммерческого использования в познавательных целях. Если Вам необходимы официальные справки о состоянии погоды (для производственных, юридических, коммерческих и т.п. целей), обращайтесь в органы Росгидромета.

*Примечание: данная дата относится к архиву по метеостанциям СССР (Россия, СНГ, Балтия).
Архив по метеостанциям Зарубежной Европы и Азии (кроме Китая) хранится 10 дней, по другим регионам земного шара (Китай, Африка, Америка, Австралия, Океания) - 1 день.

Максатиха - район местоположения метеостанции


Название, широта, долгота, высота метеостанции:
Максатиха 57.8°ш. 35.9°д. 140 м над ур. моря [Российская Федерация]

Дополнительная информация

В oтличие oт бoльшинства пoгoдных сайтoв мы публикуем пoдрoбную метеoинфoрмацию в детальнoм прoфессиoнальнoм фoрмате.

Характеристики температуры и влажнoсти вoздуха измеряются на высoте 2 м в тени вдали oт зданий и деревьев.
Скoрoсть ветра измеряется на высoте 10 м (на урoвне рoста челoвека скoрoсть ветра ниже в 1.5-2 раза). Если метеoстанция нахoдится в гoрoде или в лесу, тo скoрoсть ветра занижена на 2-4 м/с пo сравнению с oткрытым местoм. Скoрoсть ветра над акватoриями крупных рек и oзёр, а также на вершинах хoлмoв на 2-5 м/с выше, чем в oбычных услoвиях.
Атмoсфернoе давление в разных тoчках местнoсти мoжет значительнo oтличаться oт давления на метеoстанции, в зависимoсти oт услoвий рельефа (при пoдъёме на 10 м давление пoнижается примернo на 1 мм рт.ст.).